SR8WXD Weather Reports


time (UTC)temp
C
wind
direction
speed
KPH
gust
KPH
rain 1hr
cm
rain 24hr
cm
rain mn
cm
humidity
%
barometer
mb
20260905234917 12 235 14.5 22.5 0.00 0.00 0.00 100
20260905234716 12 229 12.9 22.5 0.00 0.00 0.00 100
20260905234616 12 233 12.9 19.3 0.00 0.00 0.00 100
20260905234515 12 233 14.5 19.3 0.00 0.00 0.00 100
20260905234314 13 232 14.5 25.7 0.00 0.00 0.00 100
20260905234113 13 232 14.5 25.7 0.00 0.00 0.00 100
20260905233912 13 230 14.5 25.7 0.00 0.00 0.00 100
20260905233711 13 234 17.7 29.0 0.00 0.00 0.00 100
20260905233611 13 239 17.7 29.0 0.00 0.00 0.00 100
20260905233510 13 240 19.3 29.0 0.00 0.00 0.00 100
20260905233307 13 233 19.3 29.0 0.00 0.00 0.00 100
20260905233106 13 238 19.3 32.2 0.00 0.00 0.00 100
20260905232904 13 243 16.1 24.1 0.00 0.00 0.00 100
20260905232703 13 247 19.3 27.4 0.00 0.00 0.00 100
20260905232602 13 243 17.7 27.4 0.00 0.00 0.00 100
20260905232500 13 236 16.1 27.4 0.00 0.00 0.00 100
20260905232258 13 230 17.7 27.4 0.00 0.00 0.00 100
20260905232057 13 234 17.7 22.5 0.00 0.00 0.00 100
20260905231856 13 237 20.9 30.6 0.00 0.00 0.00 100
20260905231655 13 233 17.7 30.6 0.00 0.00 0.00 100
20260905231554 13 236 17.7 29.0 0.00 0.00 0.00 100
20260905231453 13 240 19.3 29.0 0.00 0.00 0.00 100
20260905231251 13 251 19.3 27.4 0.00 0.00 0.00 100
20260905231048 13 247 24.1 37.0 0.00 0.00 0.00 100
20260905230846 13 248 27.4 48.3 0.00 0.00 0.00 100
20260905230655 13 254 29.0 48.3 0.00 0.00 0.00 100
20260905230542 13 253 27.4 38.6 0.00 0.00 0.00 100
20260905230450 13 252 25.7 37.0 0.00 0.00 0.00 100
20260905230245 13 254 27.4 54.7 0.00 0.00 0.00 100
20260905230031 13 251 29.0 38.6 0.00 0.00 0.00 100
20260905225826 13 245 27.4 40.2 0.00 0.00 0.00 100
20260905225622 13 242 29.0 40.2 0.00 0.00 0.00 100
20260905225522 14 242 29.0 40.2 0.00 0.00 0.00 100
20260905225420 14 242 27.4 40.2 0.00 0.00 0.00 100
20260905225217 14 245 24.1 40.2 0.00 0.00 0.00 100
20260905225013 14 244 22.5 35.4 0.00 0.00 0.00 100
20260905224810 14 241 20.9 33.8 0.00 0.00 0.00 100
20260905224607 15 256 27.4 35.4 0.00 0.00 0.00 100
20260905224505 15 246 25.7 35.4 0.00 0.00 0.00 100
20260905224404 15 236 24.1 35.4 0.00 0.00 0.00 100
20260905224200 15 244 22.5 41.8 0.00 0.00 0.00 100
20260905223954 15 239 24.1 41.8 0.00 0.00 0.00 100
20260905223751 15 223 22.5 32.2 0.00 0.00 0.00 100
20260905223548 15 219 20.9 27.4 0.00 0.00 0.00 100
20260905223446 15 221 20.9 27.4 0.00 0.00 0.00 100
20260905223343 15 226 19.3 22.5 0.00 0.00 0.00 100
20260905223140 15 226 16.1 20.9 0.00 0.00 0.00 100
20260905222937 15 218 16.1 24.1 0.00 0.00 0.00 100
20260905222734 15 220 17.7 24.1 0.00 0.00 0.00 100
20260905222531 15 221 17.7 24.1 0.00 0.00 0.00 100
20260905222430 15 221 17.7 29.0 0.00 0.00 0.00 100
20260905222330 15 221 17.7 29.0 0.00 0.00 0.00 100
20260905222126 15 225 19.3 30.6 0.00 0.00 0.00 100
20260905221923 15 225 16.1 30.6 0.00 0.00 0.00 100
20260905221711 15 230 16.1 25.7 0.00 0.00 0.00 100
20260905221508 15 224 17.7 29.0 0.00 0.00 0.00 100
20260905221405 15 222 19.3 29.0 0.00 0.00 0.00 100
20260905221305 15 218 17.7 27.4 0.00 0.00 0.00 100
20260905221103 15 225 20.9 25.7 0.00 0.00 0.00 100
20260905220858 15 228 19.3 24.1 0.00 0.00 0.00 100
20260905220658 14 222 17.7 32.2 0.00 0.00 0.00 100
20260905220455 14 233 16.1 22.5 0.00 0.00 0.00 100
20260905220352 15 230 16.1 24.1 0.00 0.00 0.00 100
20260905220253 15 234 17.7 24.1 0.00 0.00 0.00 100
20260905220051 15 227 17.7 24.1 0.00 0.00 0.00 100
20260905215844 15 223 17.7 24.1 0.00 0.00 0.00 100
20260905215642 15 222 19.3 29.0 0.00 0.00 0.00 100
20260905215439 15 221 17.7 32.2 0.00 0.00 0.00 100
20260905215336 15 226 16.1 32.2 0.00 0.00 0.00 100
20260905215238 15 226 14.5 19.3 0.00 0.00 0.00 100
20260905215036 15 221 16.1 30.6 0.00 0.00 0.00 100
20260905214831 15 218 20.9 35.4 0.00 0.00 0.00 100
20260905214632 15 226 20.9 35.4 0.00 0.00 0.00 100
20260905214429 15 225 20.9 30.6 0.00 0.00 0.00 100
20260905214324 15 218 19.3 30.6 0.00 0.00 0.00 100
20260905214225 15 222 17.7 30.6 0.00 0.00 0.00 100
20260905214024 15 221 16.1 22.5 0.00 0.00 0.00 100
20260905213818 15 225 17.7 25.7 0.00 0.00 0.00 100
20260905213619 15 222 19.3 25.7 0.00 0.00 0.00 100
20260905213416 15 226 20.9 30.6 0.00 0.00 0.00 100
20260905213310 15 227 20.9 30.6 0.00 0.00 0.00 100
20260905213210 15 222 19.3 30.6 0.00 0.00 0.00 100
20260905212801 15 221 19.3 27.4 0.00 0.00 0.00 100
20260905212603 15 218 20.9 29.0 0.00 0.00 0.00 100
20260905212400 15 226 17.7 25.7 0.00 0.00 0.00 100
20260905212255 15 243 17.7 25.7 0.00 0.00 0.00 100
20260905212158 15 249 19.3 30.6 0.00 0.00 0.00 100
20260905211954 15 229 20.9 30.6 0.00 0.00 0.00 100
20260905211746 15 217 19.3 25.7 0.00 0.00 0.00 100
20260905211547 15 221 22.5 45.1 0.00 0.00 0.00 100
20260905211345 15 218 20.9 45.1 0.00 0.00 0.00 100
20260905211239 15 221 17.7 27.4 0.00 0.00 0.00 100
20260905211143 15 221 19.3 29.0 0.00 0.00 0.00 100
20260905210940 15 224 22.5 29.0 0.00 0.00 0.00 100
20260905210733 15 228 17.7 27.4 0.00 0.00 0.00 100
20260905210534 15 232 19.3 27.4 0.00 0.00 0.00 100
20260905210331 15 223 17.7 25.7 0.00 0.00 0.00 100
20260905210225 15 227 16.1 25.7 0.00 0.00 0.00 100
20260905210129 15 223 16.1 22.5 0.00 0.00 0.00 100
20260905205926 15 215 16.1 24.1 0.00 0.00 0.00 100
20260905205719 15 215 17.7 25.7 0.00 0.00 0.00 100
20260905205522 15 225 16.1 27.4 0.00 0.00 0.00 100
20260905205318 15 226 16.1 22.5 0.00 0.00 0.00 100
20260905205211 15 215 16.1 22.5 0.00 0.00 0.00 100
20260905205115 15 215 14.5 22.5 0.00 0.00 0.00 100
20260905204913 15 217 14.5 19.3 0.00 0.00 0.00 100
20260905204705 15 218 16.1 20.9 0.00 0.00 0.00 100
20260905204508 15 220 17.7 25.7 0.00 0.00 0.00 100
20260905204306 15 220 17.7 24.1 0.00 0.00 0.00 100
20260905204159 15 217 17.7 20.9 0.00 0.00 0.00 100
20260905204103 15 217 16.1 20.9 0.00 0.00 0.00 100
20260905203900 15 218 16.1 22.5 0.00 0.00 0.00 100
20260905203653 15 224 16.1 22.5 0.00 0.00 0.00 100
20260905203456 15 227 16.1 22.5 0.00 0.00 0.00 100
20260905203252 15 227 16.1 20.9 0.00 0.00 0.00 100
20260905203145 15 221 16.1 20.9 0.00 0.00 0.00 100
20260905203050 15 233 16.1 20.9 0.00 0.00 0.00 100
20260905202847 15 233 16.1 20.9 0.00 0.00 0.00 100
20260905202638 15 225 16.1 20.9 0.00 0.00 0.00 100
20260905202341 15 219 17.7 22.5 0.00 0.00 0.00 100
20260905202133 15 216 16.1 20.9 0.00 0.00 0.00 100
20260905201936 15 216 16.1 24.1 0.00 0.00 0.00 100
20260905201732 15 219 17.7 25.7 0.00 0.00 0.00 100
20260905201626 15 219 19.3 25.7 0.00 0.00 0.00 100
20260905201530 15 227 17.7 25.7 0.00 0.00 0.00 100
20260905201328 15 228 16.1 20.9 0.00 0.00 0.00 100
20260905201119 15 219 19.3 25.7 0.00 0.00 0.00 100
20260905200923 15 218 17.7 27.4 0.00 0.00 0.00 100
20260905200720 15 225 19.3 24.1 0.00 0.00 0.00 100
20260905200614 15 230 19.3 25.7 0.00 0.00 0.00 100
20260905200519 14 230 19.3 29.0 0.00 0.00 0.00 100
20260905200316 14 232 19.3 29.0 0.00 0.00 0.00 100
20260905200109 14 227 16.1 24.1 0.00 0.00 0.00 100
20260905195909 14 218 17.7 29.0 0.00 0.00 0.00 100
20260905195704 14 228 17.7 27.4 0.00 0.00 0.00 100
20260905195603 14 229 17.7 27.4 0.00 0.00 0.00 100
20260905195511 14 234 17.7 27.4 0.00 0.00 0.00 100
20260905195256 14 234 17.7 25.7 0.00 0.00 0.00 100
20260905195053 14 227 16.1 24.1 0.00 0.00 0.00 100
20260905194851 14 218 17.7 22.5 0.00 0.00 0.00 100
20260905194649 13 217 16.1 22.5 0.00 0.00 0.00 100
20260905194547 13 220 16.1 22.5 0.00 0.00 0.00 100
20260905194446 13 219 16.1 22.5 0.00 0.00 0.00 100
20260905194040 13 224 16.1 19.3 0.00 0.00 0.00 100
20260905193828 13 217 16.1 20.9 0.00 0.00 0.00 100
20260905193625 13 218 17.7 22.5 0.00 0.00 0.00 100
20260905193523 13 217 19.3 24.1 0.00 0.00 0.00 100
20260905193423 13 220 19.3 24.1 0.00 0.00 0.00 100
20260905193219 13 225 17.7 22.5 0.00 0.00 0.00 100
20260905193014 13 219 16.1 19.3 0.00 0.00 0.00 100
20260905192813 13 218 17.7 22.5 0.00 0.00 0.00 100
20260905192612 13 226 17.7 22.5 0.00 0.00 0.00 100
20260905192510 13 225 16.1 20.9 0.00 0.00 0.00 100
20260905192410 13 229 17.7 20.9 0.00 0.00 0.00 100
20260905192208 13 223 17.7 20.9 0.00 0.00 0.00 100
20260905192005 13 226 16.1 20.9 0.00 0.00 0.00 100
20260905191805 14 217 16.1 22.5 0.00 0.00 0.00 100
20260905191602 15 212 14.5 19.3 0.00 0.00 0.00 100
20260905191500 15 214 14.5 19.3 0.00 0.00 0.00 100
20260905191400 15 217 12.9 16.1 0.00 0.00 0.00 100
20260905191220 15 222 11.3 12.9 0.00 0.00 0.00 100
20260905190956 15 217 9.7 12.9 0.00 0.00 0.00 100
20260905190753 15 216 11.3 12.9 0.00 0.00 0.00 100
20260905190552 15 217 11.3 14.5 0.00 0.00 0.00 100
20260905190451 15 217 12.9 14.5 0.00 0.00 0.00 100
20260905190350 15 217 12.9 16.1 0.00 0.00 0.00 100
20260905190147 15 215 11.3 16.1 0.00 0.00 0.00 100
20260905185945 15 217 11.3 12.9 0.00 0.00 0.00 100
20260905185743 15 217 11.3 12.9 0.00 0.00 0.00 100
20260905185542 15 215 11.3 12.9 0.00 0.00 0.00 100
20260905185441 15 214 9.7 12.9 0.00 0.00 0.00 100
20260905185340 15 214 9.7 16.1 0.00 0.00 0.00 100
20260905185139 15 214 11.3 16.1 0.00 0.00 0.00 100
20260905184937 15 215 11.3 14.5 0.00 0.00 0.00 100
20260905184735 15 215 9.7 12.9 0.00 0.00 0.00 100
20260905184535 15 215 9.7 12.9 0.00 0.00 0.00 100
20260905184434 15 219 9.7 12.9 0.00 0.00 0.00 100
20260905184334 15 218 9.7 11.3 0.00 0.00 0.00 100
20260905184132 15 218 9.7 12.9 0.00 0.00 0.00 100
20260905183930 15 220 11.3 14.5 0.00 0.00 0.00 100
20260905183728 15 215 11.3 14.5 0.00 0.00 0.00 100
20260905183527 15 227 11.3 14.5 0.00 0.00 0.00 100
20260905183425 15 227 11.3 14.5 0.00 0.00 0.00 100
20260905183324 15 222 9.7 14.5 0.00 0.00 0.00 100
20260905183122 15 215 9.7 12.9 0.00 0.00 0.00 100
20260905182921 15 216 11.3 14.5 0.00 0.00 0.00 100
20260905182719 15 215 11.3 14.5 0.00 0.00 0.00 100
20260905182518 15 219 12.9 19.3 0.00 0.00 0.00 100
20260905182416 15 220 11.3 19.3 0.00 0.00 0.00 100
20260905182315 15 225 9.7 12.9 0.00 0.00 0.00 100
20260905182114 15 221 9.7 12.9 0.00 0.00 0.00 100
20260905181913 15 216 11.3 14.5 0.00 0.00 0.00 100
20260905181712 15 219 11.3 16.1 0.00 0.00 0.00 100
20260905181511 15 224 11.3 16.1 0.00 0.00 0.00 100
20260905181410 15 223 11.3 16.1 0.00 0.00 0.00 100
20260905181309 15 222 11.3 16.1 0.00 0.00 0.00 100
20260905181107 15 219 9.7 14.5 0.00 0.00 0.00 100
20260905180905 15 218 9.7 14.5 0.00 0.00 0.00 100
20260905180703 15 225 9.7 12.9 0.00 0.00 0.00 100
20260905180503 15 230 9.7 14.5 0.00 0.00 0.00 100
20260905180402 15 225 9.7 14.5 0.00 0.00 0.00 100
20260905180301 15 225 9.7 12.9 0.00 0.00 0.00 100
20260905180059 15 225 9.7 12.9 0.00 0.00 0.00 100
20260905175857 15 221 9.7 12.9 0.00 0.00 0.00 100
20260905175706 15 219 9.7 12.9 0.00 0.00 0.00 100
20260905175453 15 218 11.3 14.5 0.00 0.00 0.00 100
20260905175352 15 225 11.3 16.1 0.00 0.00 0.00 100
20260905175251 15 225 11.3 16.1 0.00 0.00 0.00 100
20260905175050 15 224 11.3 14.5 0.00 0.00 0.00 100
20260905174847 15 228 11.3 17.7 0.00 0.00 0.00 100
20260905174645 15 230 11.3 17.7 0.00 0.00 0.00 100
20260905174444 15 225 9.7 12.9 0.00 0.00 0.00 100
20260905174343 15 222 9.7 17.7 0.00 0.00 0.00 100
20260905174242 16 222 11.3 17.7 0.00 0.00 0.00 100
20260905174041 16 225 11.3 17.7 0.00 0.00 0.00 100
20260905173839 16 225 11.3 17.7 0.00 0.00 0.00 100
20260905173639 16 225 11.3 14.5 0.00 0.00 0.00 100
20260905173437 16 225 12.9 19.3 0.00 0.00 0.00 100
20260905173336 16 225 14.5 19.3 0.00 0.00 0.00 100
20260905173236 16 224 12.9 19.3 0.00 0.00 0.00 100
20260905173034 16 226 11.3 16.1 0.00 0.00 0.00 100
20260905172833 16 230 11.3 16.1 0.00 0.00 0.00 100
20260905172630 16 231 12.9 14.5 0.00 0.00 0.00 100
20260905172427 16 231 11.3 16.1 0.00 0.00 0.00 100
20260905172327 16 233 11.3 16.1 0.00 0.00 0.00 100
20260905172226 16 237 11.3 14.5 0.00 0.00 0.00 100
20260905172023 16 232 12.9 17.7 0.00 0.00 0.00 100
20260905171822 16 230 11.3 16.1 0.00 0.00 0.00 100
20260905171621 16 233 11.3 17.7 0.00 0.00 0.00 100
20260905171419 16 237 12.9 17.7 0.00 0.00 0.00 100
20260905171318 16 236 11.3 16.1 0.00 0.00 0.00 100
20260905171216 16 236 11.3 16.1 0.00 0.00 0.00 100
20260905171014 16 240 11.3 14.5 0.00 0.00 0.00 100
20260905170812 16 236 12.9 16.1 0.00 0.00 0.00 100
20260905170612 16 235 12.9 19.3 0.00 0.00 0.00 100
20260905170410 16 238 12.9 19.3 0.00 0.00 0.00 100
20260905170309 16 241 12.9 17.7 0.00 0.00 0.00 100
20260905165958 16 230 12.9 19.3 0.00 0.00 0.00 100
20260905165751 16 230 12.9 19.3 0.00 0.00 0.00 100
20260905165554 16 233 11.3 17.7 0.00 0.00 0.00 100
20260905165353 16 238 12.9 19.3 0.00 0.00 0.00 100
20260905165247 16 241 12.9 19.3 0.00 0.00 0.00 100
20260905165151 17 241 12.9 22.5 0.00 0.00 0.00 100
20260905164949 17 237 14.5 27.4 0.00 0.00 0.00 100
20260905164740 17 232 16.1 25.7 0.00 0.00 0.00 100
20260905164542 17 228 16.1 25.7 0.00 0.00 0.00 100
20260905164340 17 237 16.1 25.7 0.00 0.00 0.00 100
20260905164233 17 233 16.1 25.7 0.00 0.00 0.00 100
20260905164137 17 225 16.1 25.7 0.00 0.00 0.00 100
20260905163935 17 221 12.9 22.5 0.00 0.00 0.00 100
20260905163726 17 225 16.1 20.9 0.00 0.00 0.00 100
20260905163530 17 227 17.7 27.4 0.00 0.00 0.00 100
20260905163326 17 221 14.5 20.9 0.00 0.00 0.00 100
20260905163221 17 224 12.9 19.3 0.00 0.00 0.00 100
20260905163124 17 225 12.9 20.9 0.00 0.00 0.00 100
20260905162921 17 227 16.1 24.1 0.00 0.00 0.00 100
20260905162714 17 230 14.5 24.1 0.00 0.00 0.00 100
20260905162513 17 225 16.1 22.5 0.00 0.00 0.00 100
20260905162312 17 221 17.7 27.4 0.00 0.00 0.00 100
20260905162207 17 225 19.3 30.6 0.00 0.00 0.00 100
20260905162109 17 226 19.3 30.6 0.00 0.00 0.00 100
20260905161905 17 224 22.5 32.2 0.00 0.00 0.00 100
20260905161659 17 223 17.7 33.8 0.00 0.00 0.00 100
20260905161500 18 231 19.3 29.0 0.00 0.00 0.00 100
20260905161258 18 230 22.5 29.0 0.00 0.00 0.00 100
20260905161152 18 226 22.5 32.2 0.00 0.00 0.00 100
20260905161055 18 224 19.3 32.2 0.00 0.00 0.00 100
20260905160853 18 231 12.9 17.7 0.00 0.00 0.00 100
20260905160647 18 225 12.9 17.7 0.00 0.00 0.00 100
20260905160450 18 231 16.1 22.5 0.00 0.00 0.00 100
20260905160247 18 227 16.1 22.5 0.00 0.00 0.00 100
20260905160142 18 225 14.5 22.5 0.00 0.00 0.00 100
20260905160045 18 232 14.5 22.5 0.00 0.00 0.00 100
20260905155842 18 221 17.7 25.7 0.00 0.00 0.00 100
20260905155636 18 218 14.5 24.1 0.00 0.00 0.00 100
20260905155438 18 218 14.5 22.5 0.00 0.00 0.00 100
20260905155237 18 221 19.3 24.1 0.00 0.00 0.00 100
20260905155131 18 220 17.7 24.1 0.00 0.00 0.00 100
20260905155034 18 216 16.1 24.1 0.00 0.00 0.00 100
20260905154831 18 215 12.9 22.5 0.00 0.00 0.00 100
20260905154625 18 219 16.1 27.4 0.00 0.00 0.00 100
20260905154427 18 223 16.1 20.9 0.00 0.00 0.00 100
20260905154225 18 224 16.1 22.5 0.00 0.00 0.00 100
20260905154118 18 224 16.1 22.5 0.00 0.00 0.00 100
20260905154022 18 216 16.1 22.5 0.00 0.00 0.00 100
20260905153820 18 218 16.1 22.5 0.00 0.00 0.00 100
20260905153612 18 222 17.7 24.1 0.00 0.00 0.00 100
20260905153415 18 225 19.3 29.0 0.00 0.00 0.00 100
20260905153213 18 221 17.7 29.0 0.00 0.00 0.00 100
20260905153107 18 220 16.1 27.4 0.00 0.00 0.00 100
20260905153009 18 221 12.9 19.3 0.00 0.00 0.00 100
20260905152807 19 219 16.1 25.7 0.00 0.00 0.00 100
20260905152600 19 218 16.1 25.7 0.00 0.00 0.00 100
20260905152405 19 222 17.7 29.0 0.00 0.00 0.00 100
20260905152203 19 218 17.7 25.7 0.00 0.00 0.00 100
20260905152055 20 222 19.3 25.7 0.00 0.00 0.00 100
20260905152001 20 222 19.3 27.4 0.00 0.00 0.00 100
20260905151759 20 226 19.3 27.4 0.00 0.00 0.00 100
20260905151551 20 222 17.7 27.4 0.00 0.00 0.00 100
20260905151356 20 235 17.7 27.4 0.00 0.00 0.00 100
20260905151153 20 226 17.7 25.7 0.00 0.00 0.00 100
20260905151045 19 228 17.7 25.7 0.00 0.00 0.00 100
20260905150950 18 230 17.7 24.1 0.00 0.00 0.00 100
20260905150746 18 220 17.7 29.0 0.00 0.00 0.00 100
20260905150538 19 227 19.3 29.0 0.00 0.00 0.00 100
20260905150340 20 222 17.7 25.7 0.00 0.00 0.00 100
20260905150134 20 222 19.3 25.7 0.00 0.00 0.00 100
20260905150031 20 222 16.1 24.1 0.00 0.00 0.00 100
20260905145931 20 220 16.1 22.5 0.00 0.00 0.00 100
20260905145731 19 218 14.5 20.9 0.00 0.00 0.00 100
20260905145529 19 218 16.1 27.4 0.00 0.00 0.00 100
20260905145328 18 218 17.7 27.4 0.00 0.00 0.00 100
20260905145126 18 222 16.1 22.5 0.00 0.00 0.00 100
20260905145024 18 230 16.1 24.1 0.00 0.00 0.00 100
20260905144924 18 228 16.1 24.1 0.00 0.00 0.00 100
20260905144721 18 222 12.9 16.1 0.00 0.00 0.00 100
20260905144518 18 224 14.5 25.7 0.00 0.00 0.00 100
20260905144318 18 224 16.1 29.0 0.00 0.00 0.00 100
20260905144115 19 229 16.1 25.7 0.00 0.00 0.00 100
20260905144010 19 227 17.7 22.5 0.00 0.00 0.00 100
20260905143912 19 217 20.9 32.2 0.00 0.00 0.00 100
20260905143710 20 217 20.9 33.8 0.00 0.00 0.00 100
20260905143505 20 221 17.7 24.1 0.00 0.00 0.00 100
20260905143503 19 221 17.7 24.1 0.00 0.00 0.00 100
20260905143304 19 222 19.3 29.0 0.00 0.00 0.00 100
20260905143101 20 219 17.7 25.7 0.00 0.00 0.00 100
20260905142958 20 219 17.7 24.1 0.00 0.00 0.00 100
20260905142858 20 213 17.7 24.1 0.00 0.00 0.00 100
20260905142655 20 215 16.1 24.1 0.00 0.00 0.00 100
20260905142453 22 214 17.7 25.7 0.00 0.00 0.00 100
20260905142239 22 215 16.1 25.7 0.00 0.00 0.00 100
20260905142038 22 217 16.1 24.1 0.00 0.00 0.00 100
20260905141836 22 223 19.3 29.0 0.00 0.00 0.00 100
20260905141634 22 217 19.3 29.0 0.00 0.00 0.00 100
20260905141433 23 217 14.5 22.5 0.00 0.00 0.00 100
20260905141232 22 223 12.9 20.9 0.00 0.00 0.00 100
20260905141042 22 227 12.9 19.3 0.00 0.00 0.00 100
20260905140932 23 228 16.1 27.4 0.00 0.00 0.00 100
20260905140831 23 225 16.1 27.4 0.00 0.00 0.00 100
20260905140630 22 220 14.5 22.5 0.00 0.00 0.00 100
20260905140428 22 225 19.3 25.7 0.00 0.00 0.00 100
20260905140226 22 220 20.9 30.6 0.00 0.00 0.00 100
20260905140024 21 225 24.1 37.0 0.00 0.00 0.00 100
20260905135923 20 229 22.5 37.0 0.00 0.00 0.00 100
20260905135821 20 225 22.5 37.0 0.00 0.00 0.00 100
20260905135617 20 217 17.7 33.8 0.00 0.00 0.00 100
20260905135414 20 218 14.5 20.9 0.00 0.00 0.00 100
20260905135212 19 220 19.3 33.8 0.00 0.00 0.00 100
20260905135010 19 224 19.3 29.0 0.00 0.00 0.00 100
20260905134910 19 224 20.9 29.0 0.00 0.00 0.00 100
20260905134808 19 218 22.5 29.0 0.00 0.00 0.00 100
20260905134607 20 220 19.3 27.4 0.00 0.00 0.00 100
20260905134414 20 215 20.9 29.0 0.00 0.00 0.00 100
20260905134404 21 215 20.9 29.0 0.00 0.00 0.00 100
20260905134202 21 219 22.5 32.2 0.00 0.00 0.00 100
20260905134000 21 214 20.9 33.8 0.00 0.00 0.00 100
20260905133859 21 215 22.5 33.8 0.00 0.00 0.00 100
20260905133758 21 215 22.5 33.8 0.00 0.00 0.00 100
20260905133557 20 214 20.9 32.2 0.00 0.00 0.00 100
20260905133356 21 218 22.5 37.0 0.00 0.00 0.00 100
20260905133153 21 228 24.1 37.0 0.00 0.00 0.00 100
20260905132951 21 240 20.9 33.8 0.00 0.00 0.00 100
20260905132848 21 234 17.7 32.2 0.00 0.00 0.00 100
20260905132748 21 223 17.7 27.4 0.00 0.00 0.00 100
20260905132547 21 221 24.1 32.2 0.00 0.00 0.00 100
20260905132343 21 227 24.1 32.2 0.00 0.00 0.00 100
20260905132144 21 223 27.4 35.4 0.00 0.00 0.00 100
20260905131943 21 223 22.5 33.8 0.00 0.00 0.00 100
20260905131840 21 218 20.9 30.6 0.00 0.00 0.00 100
20260905131741 21 218 22.5 33.8 0.00 0.00 0.00 100
20260905131539 21 223 24.1 37.0 0.00 0.00 0.00 100
20260905131336 21 220 22.5 32.2 0.00 0.00 0.00 100
20260905131135 21 216 22.5 32.2 0.00 0.00 0.00 100
20260905130934 21 220 24.1 33.8 0.00 0.00 0.00 100
20260905130835 21 219 22.5 33.8 0.00 0.00 0.00 100
20260905130733 21 217 19.3 30.6 0.00 0.00 0.00 100
20260905130531 21 223 22.5 37.0 0.00 0.00 0.00 100
20260905130331 21 227 24.1 37.0 0.00 0.00 0.00 100
20260905130136 21 219 22.5 37.0 0.00 0.00 0.00 100
20260905125927 21 218 16.1 24.1 0.00 0.00 0.00 100
20260905125826 21 218 17.7 32.2 0.00 0.00 0.00 100
20260905125725 21 223 20.9 32.2 0.00 0.00 0.00 100
20260905125522 21 223 22.5 38.6 0.00 0.00 0.00 100
20260905125319 21 217 19.3 29.0 0.00 0.00 0.00 100
20260905125118 22 217 22.5 33.8 0.00 0.00 0.00 100
20260905124915 22 225 25.7 40.2 0.00 0.00 0.00 100
20260905124814 22 225 24.1 40.2 0.00 0.00 0.00 100
20260905124713 23 234 19.3 37.0 0.00 0.00 0.00 100
20260905124510 22 218 17.7 30.6 0.00 0.00 0.00 100
20260905124308 22 212 14.5 25.7 0.00 0.00 0.00 100
20260905124107 22 214 19.3 32.2 0.00 0.00 0.00 100
20260905123904 22 218 24.1 37.0 0.00 0.00 0.00 100
20260905123803 22 223 25.7 37.0 0.00 0.00 0.00 100
20260905123702 22 223 25.7 37.0 0.00 0.00 0.00 100
20260905123459 21 218 22.5 32.2 0.00 0.00 0.00 100
20260905123257 21 218 16.1 32.2 0.00 0.00 0.00 100
20260905123054 21 216 16.1 20.9 0.00 0.00 0.00 100
20260905122852 21 224 20.9 30.6 0.00 0.00 0.00 100
20260905122752 21 224 22.5 30.6 0.00 0.00 0.00 100
20260905122650 21 222 22.5 37.0 0.00 0.00 0.00 100
20260905122242 21 227 22.5 32.2 0.00 0.00 0.00 100
20260905122039 21 222 22.5 32.2 0.00 0.00 0.00 100
20260905121836 21 224 24.1 32.2 0.00 0.00 0.00 100
20260905121735 21 225 25.7 38.6 0.00 0.00 0.00 100
20260905121633 21 228 25.7 38.6 0.00 0.00 0.00 100
20260905121430 20 236 25.7 38.6 0.00 0.00 0.00 100
20260905121225 21 220 30.6 43.5 0.00 0.00 0.00 100
20260905121022 20 220 25.7 35.4 0.00 0.00 0.00 100
20260905120821 20 226 24.1 30.6 0.00 0.00 0.00 100
20260905120718 21 227 25.7 35.4 0.00 0.00 0.00 100
20260905120618 21 219 24.1 35.4 0.00 0.00 0.00 100
20260905120414 21 226 17.7 29.0 0.00 0.00 0.00 100
20260905120212 20 218 14.5 22.5 0.00 0.00 0.00 100
20260905120010 19 224 16.1 29.0 0.00 0.00 0.00 100
20260905115827 19 234 19.3 29.0 0.00 0.00 0.00 100
20260905115704 19 246 22.5 27.4 0.00 0.00 0.00 100
20260905115107 21 223 25.7 35.4 0.00 0.00 0.00 100
20260905114601 20 237 22.5 37.0 0.00 0.00 0.00 100
20260905114310 20 242 24.1 32.2 0.00 0.00 0.00 100
20260905114052 20 224 22.5 32.2 0.00 0.00 0.00 100
20260905113846 18 224 14.5 22.5 0.00 0.00 0.00 100
20260905113644 18 231 14.5 20.9 0.00 0.00 0.00 100
20260905113542 18 237 12.9 20.9 0.00 0.00 0.00 100
20260905113441 18 236 9.7 20.9 0.00 0.00 0.00 100
20260905113240 20 238 12.9 19.3 0.00 0.00 0.00 100
20260905113038 21 240 12.9 32.2 0.00 0.00 0.00 100
20260905112835 20 230 11.3 16.1 0.00 0.00 0.00 100
20260905112633 20 230 9.7 14.5 0.00 0.00 0.00 100
20260905112532 20 233 12.9 24.1 0.00 0.00 0.00 100
20260905112433 20 239 14.5 24.1 0.00 0.00 0.00 100
20260905112228 18 228 16.1 22.5 0.00 0.00 0.00 100
20260905112025 18 227 16.1 24.1 0.00 0.00 0.00 100
20260905111809 18 225 14.5 24.1 0.00 0.00 0.00 100
20260905111606 18 232 14.5 25.7 0.00 0.00 0.00 100
20260905111505 18 235 17.7 25.7 0.00 0.00 0.00 100
20260905111404 18 236 16.1 25.7 0.00 0.00 0.00 100
20260905111201 18 238 12.9 25.7 0.00 0.00 0.00 100
20260905110958 19 223 12.9 19.3 0.00 0.00 0.00 100
20260905110756 20 221 14.5 20.9 0.00 0.00 0.00 100
20260905110554 20 218 17.7 32.2 0.00 0.00 0.00 100
20260905110450 20 218 19.3 32.2 0.00 0.00 0.00 100
20260905110350 19 217 19.3 32.2 0.00 0.00 0.00 100
20260905110144 18 221 16.1 27.4 0.00 0.00 0.00 100
20260905105940 18 226 16.1 22.5 0.00 0.00 0.00 100
20260905105737 18 229 14.5 25.7 0.00 0.00 0.00 100
20260905105534 19 228 17.7 25.7 0.00 0.00 0.00 100
20260905105432 19 225 19.3 25.7 0.00 0.00 0.00 100
20260905105330 19 220 20.9 25.7 0.00 0.00 0.00 100
20260905105127 20 217 22.5 38.6 0.00 0.00 0.00 100
20260905104922 20 224 20.9 38.6 0.00 0.00 0.00 100
20260905104718 19 221 14.5 24.1 0.00 0.00 0.00 100
20260905104515 19 219 16.1 24.1 0.00 0.00 0.00 100
20260905104414 19 218 16.1 24.1 0.00 0.00 0.00 100
20260905104312 19 218 14.5 22.5 0.00 0.00 0.00 100
20260905104109 18 218 11.3 17.7 0.00 0.00 0.00 100
20260905103907 18 235 9.7 14.5 0.00 0.00 0.00 100
20260905103701 17 233 9.7 12.9 0.00 0.00 0.00 100
20260905103500 17 220 6.4 9.7 0.00 0.00 0.00 100
20260905103358 17 213 6.4 9.7 0.00 0.00 0.00 100
20260905103257 17 217 6.4 9.7 0.00 0.00 0.00 100
20260905103056 17 231 8.0 11.3 0.00 0.00 0.00 100
20260905102855 16 233 8.0 11.3 0.00 0.00 0.00 100
20260905102652 16 224 4.8 9.7 0.00 0.00 0.00 100
20260905102452 16 225 9.7 12.9 0.00 0.00 0.00 100
20260905102351 16 224 9.7 12.9 0.00 0.00 0.00 100
20260905102250 16 228 8.0 11.3 0.00 0.00 0.00 100
20260905102058 16 228 8.0 12.9 0.00 0.00 0.00 100
20260905101847 16 225 9.7 17.7 0.00 0.00 0.00 100
20260905101645 16 219 11.3 17.7 0.00 0.00 0.00 100
20260905101442 16 221 9.7 12.9 0.00 0.00 0.00 100
20260905101341 16 221 9.7 12.9 0.00 0.00 0.00 100
20260905101239 16 222 11.3 14.5 0.00 0.00 0.00 100
20260905101039 15 224 12.9 17.7 0.00 0.00 0.00 100
20260905100837 15 220 12.9 17.7 0.00 0.00 0.00 100
20260905100634 15 229 11.3 17.7 0.00 0.00 0.00 100
20260905100434 15 228 11.3 16.1 0.00 0.00 0.00 100
20260905100330 15 223 9.7 16.1 0.00 0.00 0.00 100
20260905100232 15 218 12.9 19.3 0.00 0.00 0.00 100
20260905100030 15 215 12.9 19.3 0.00 0.00 0.00 100
20260905095825 15 222 9.7 14.5 0.00 0.00 0.00 100
20260905095628 15 232 9.7 17.7 0.00 0.00 0.00 100
20260905095426 15 233 9.7 17.7 0.00 0.00 0.00 100
20260905095323 15 232 8.0 16.1 0.00 0.00 0.00 100
20260905095226 15 235 9.7 16.1 0.00 0.00 0.00 100
20260905095026 15 231 9.7 16.1 0.00 0.00 0.00 100
20260905094819 15 229 11.3 16.1 0.00 0.00 0.00 100
20260905094621 15 225 9.7 12.9 0.00 0.00 0.00 100
20260905094420 15 233 11.3 17.7 0.00 0.00 0.00 100
20260905094316 15 232 11.3 17.7 0.00 0.00 0.00 100
20260905094217 15 225 11.3 16.1 0.00 0.00 0.00 100
20260905094015 15 233 11.3 16.1 0.00 0.00 0.00 100
20260905093812 15 223 8.0 14.5 0.00 0.00 0.00 100
20260905093611 15 224 8.0 11.3 0.00 0.00 0.00 100
20260905093409 15 221 9.7 14.5 0.00 0.00 0.00 100
20260905093304 15 220 9.7 16.1 0.00 0.00 0.00 100
20260905093007 14 219 8.0 12.9 0.00 0.00 0.00 100
20260905092801 14 226 9.7 14.5 0.00 0.00 0.00 100
20260905092605 14 222 12.9 16.1 0.00 0.00 0.00 100
20260905092404 15 217 9.7 14.5 0.00 0.00 0.00 100
20260905092259 15 216 9.7 14.5 0.00 0.00 0.00 100
20260905092203 15 216 8.0 12.9 0.00 0.00 0.00 100
20260905091959 15 216 6.4 9.7 0.00 0.00 0.00 100
20260905091753 15 219 8.0 9.7 0.00 0.00 0.00 100
20260905091557 15 220 4.8 9.7 0.00 0.00 0.00 100
20260905091355 15 217 4.8 8.0 0.00 0.00 0.00 100
20260905091251 15 215 6.4 9.7 0.00 0.00 0.00 100
20260905091155 15 215 6.4 9.7 0.00 0.00 0.00 100
20260905090955 15 218 6.4 12.9 0.00 0.00 0.00 100
20260905090751 15 216 9.7 12.9 0.00 0.00 0.00 100
20260905090554 14 220 9.7 14.5 0.00 0.00 0.00 100
20260905090354 14 221 9.7 14.5 0.00 0.00 0.00 100
20260905090247 14 224 9.7 14.5 0.00 0.00 0.00 100
20260905090153 14 220 8.0 14.5 0.00 0.00 0.00 100
20260905085951 14 211 8.0 12.9 0.00 0.00 0.00 100
20260905085743 13 208 11.3 17.7 0.00 0.00 0.00 100
20260905085547 13 208 12.9 17.7 0.00 0.00 0.00 100
20260905085346 13 208 11.3 17.7 0.00 0.00 0.00 100
20260905085240 13 208 12.9 17.7 0.00 0.00 0.00 100
20260905085143 13 209 12.9 17.7 0.00 0.00 0.00 100
20260905084939 13 213 16.1 22.5 0.00 0.00 0.00 100
20260905084736 13 217 12.9 25.7 0.00 0.00 0.00 100
20260905084545 13 226 11.3 17.7 0.00 0.00 0.00 100
20260905084333 13 229 12.9 17.7 0.00 0.00 0.00 100
20260905084231 13 232 12.9 19.3 0.00 0.00 0.00 100
20260905083918 13 227 16.1 25.7 0.00 0.00 0.00 100
20260905083716 13 232 16.1 24.1 0.00 0.00 0.00 100
20260905083513 13 234 17.7 29.0 0.00 0.00 0.00 100
20260905083310 13 229 16.1 24.1 0.00 0.00 0.00 100
20260905083207 13 229 16.1 24.1 0.00 0.00 0.00 100
20260905083108 13 232 16.1 24.1 0.00 0.00 0.00 100
20260905082906 14 237 16.1 22.5 0.00 0.00 0.00 100
20260905082702 14 239 16.1 24.1 0.00 0.00 0.00 100
20260905082501 14 242 16.1 24.1 0.00 0.00 0.00 100
20260905082300 14 249 16.1 29.0 0.00 0.00 0.00 100
20260905082157 15 233 17.7 29.0 0.00 0.00 0.00 100
20260905082058 15 233 17.7 29.0 0.00 0.00 0.00 100
20260905081856 15 229 17.7 25.7 0.00 0.00 0.00 100
20260905081653 15 228 20.9 29.0 0.00 0.00 0.00 100
20260905081453 15 238 16.1 29.0 0.00 0.00 0.00 100
20260905081249 15 238 16.1 27.4 0.00 0.00 0.00 100
20260905081146 14 235 17.7 27.4 0.00 0.00 0.00 100
20260905081046 14 228 19.3 27.4 0.00 0.00 0.00 100
20260905080843 14 229 17.7 24.1 0.00 0.00 0.00 100
20260905080640 14 239 20.9 27.4 0.00 0.00 0.00 100
20260905080439 14 228 19.3 29.0 0.00 0.00 0.00 100
20260905080237 14 223 19.3 29.0 0.00 0.00 0.00 100
20260905080132 14 222 17.7 24.1 0.00 0.00 0.00 100
20260905080035 14 225 16.1 24.1 0.00 0.00 0.00 100
20260905075833 13 229 17.7 25.7 0.00 0.00 0.00 100
20260905075626 13 227 17.7 27.4 0.00 0.00 0.00 100
20260905075427 13 223 17.7 27.4 0.00 0.00 0.00 100
20260905075226 13 232 19.3 25.7 0.00 0.00 0.00 100
20260905075122 14 237 19.3 30.6 0.00 0.00 0.00 100
20260905075023 14 245 19.3 30.6 0.00 0.00 0.00 100
20260905074820 14 238 19.3 33.8 0.00 0.00 0.00 100
20260905074614 14 230 22.5 33.8 0.00 0.00 0.00 100
20260905074412 15 227 22.5 33.8 0.00 0.00 0.00 100
20260905074208 15 223 24.1 40.2 0.00 0.00 0.00 100
20260905074106 15 229 25.7 40.2 0.00 0.00 0.00 100
20260905074002 15 228 27.4 40.2 0.00 0.00 0.00 100
20260905073759 16 227 30.6 41.8 0.00 0.00 0.00 100
20260905073554 16 234 29.0 48.3 0.00 0.00 0.00 100
20260905073351 16 232 22.5 43.5 0.00 0.00 0.00 100
20260905073146 16 234 24.1 30.6 0.00 0.00 0.00 100
20260905073040 16 240 25.7 40.2 0.00 0.00 0.00 100
20260905072943 16 236 27.4 40.2 0.00 0.00 0.00 100
20260905072737 16 222 25.7 37.0 0.00 0.00 0.00 100
20260905072527 16 230 25.7 35.4 0.00 0.00 0.00 100
20260905072328 16 228 25.7 45.1 0.00 0.00 0.00 100
20260905072123 16 223 22.5 32.2 0.00 0.00 0.00 100
20260905072016 16 222 24.1 37.0 0.00 0.00 0.00 100
20260905071921 16 226 25.7 37.0 0.00 0.00 0.00 100
20260905071718 16 223 30.6 41.8 0.00 0.00 0.00 100
20260905071507 16 234 27.4 41.8 0.00 0.00 0.00 100
20260905071306 16 229 27.4 38.6 0.00 0.00 0.00 100
20260905071102 16 224 24.1 32.2 0.00 0.00 0.00 100
20260905070956 16 224 24.1 32.2 0.00 0.00 0.00 100
20260905070855 16 222 24.1 32.2 0.00 0.00 0.00 100
20260905070651 16 226 24.1 38.6 0.00 0.00 0.00 100
20260905070448 16 229 29.0 43.5 0.00 0.00 0.00 100
20260905070237 16 233 22.5 32.2 0.00 0.00 0.00 100
20260905070034 16 230 25.7 40.2 0.00 0.00 0.00 100
20260905065933 16 228 25.7 40.2 0.00 0.00 0.00 100
20260905065829 16 220 27.4 40.2 0.00 0.00 0.00 100
20260905065626 16 225 29.0 54.7 0.00 0.00 0.00 100
20260905065420 16 230 22.5 33.8 0.00 0.00 0.00 100
20260905065213 16 222 19.3 25.7 0.00 0.00 0.00 100
20260905065031 16 222 20.9 29.0 0.00 0.00 0.00 100
20260905064908 16 219 19.3 29.0 0.00 0.00 0.00 100
20260905064601 16 227 24.1 35.4 0.00 0.00 0.00 100
20260905064358 16 231 24.1 38.6 0.00 0.00 0.00 100
20260905064153 16 231 22.5 32.2 0.00 0.00 0.00 100
20260905063947 16 224 20.9 32.2 0.00 0.00 0.00 100
20260905063846 16 225 22.5 35.4 0.00 0.00 0.00 100
20260905063744 16 224 24.1 45.1 0.00 0.00 0.00 100
20260905063540 16 223 25.7 45.1 0.00 0.00 0.00 100
20260905063337 16 222 22.5 32.2 0.00 0.00 0.00 100
20260905063130 16 231 20.9 32.2 0.00 0.00 0.00 100
20260905062934 16 233 20.9 30.6 0.00 0.00 0.00 100
20260905062822 16 232 20.9 30.6 0.00 0.00 0.00 100
20260905062720 16 227 20.9 30.6 0.00 0.00 0.00 100
20260905062517 16 231 20.9 38.6 0.00 0.00 0.00 100
20260905062314 16 223 19.3 27.4 0.00 0.00 0.00 100
20260905062112 16 225 17.7 24.1 0.00 0.00 0.00 100
20260905061919 16 229 22.5 32.2 0.00 0.00 0.00 100
20260905061807 16 229 24.1 35.4 0.00 0.00 0.00 100
20260905061706 16 231 25.7 38.6 0.00 0.00 0.00 100
20260905061505 16 236 22.5 38.6 0.00 0.00 0.00 100
20260905061302 16 232 25.7 33.8 0.00 0.00 0.00 100
20260905061058 16 228 20.9 33.8 0.00 0.00 0.00 100
20260905060856 16 228 19.3 29.0 0.00 0.00 0.00 100
20260905060754 16 228 19.3 29.0 0.00 0.00 0.00 100
20260905060652 16 230 19.3 29.0 0.00 0.00 0.00 100
20260905060449 16 226 22.5 30.6 0.00 0.00 0.00 100
20260905060246 16 227 20.9 27.4 0.00 0.00 0.00 100
20260905060031 16 230 22.5 37.0 0.00 0.00 0.00 100
20260905055827 16 230 24.1 30.6 0.00 0.00 0.00 100
20260905055717 16 226 22.5 30.6 0.00 0.00 0.00 100
20260905055620 16 225 24.1 35.4 0.00 0.00 0.00 100
20260905055415 16 221 25.7 35.4 0.00 0.00 0.00 100
20260905055208 16 221 25.7 45.1 0.00 0.00 0.00 100
20260905055010 16 223 25.7 45.1 0.00 0.00 0.00 100
20260905054806 16 228 24.1 37.0 0.00 0.00 0.00 100
20260905054657 16 227 22.5 33.8 0.00 0.00 0.00 100
20260905054601 16 227 24.1 33.8 0.00 0.00 0.00 100
20260905054358 16 232 22.5 33.8 0.00 0.00 0.00 100
20260905054148 16 227 22.5 30.6 0.00 0.00 0.00 100
20260905053950 16 221 22.5 35.4 0.00 0.00 0.00 100
20260905053749 16 226 22.5 33.8 0.00 0.00 0.00 100
20260905053636 16 231 22.5 33.8 0.00 0.00 0.00 100
20260905053543 16 222 22.5 33.8 0.00 0.00 0.00 100
20260905053337 16 225 24.1 33.8 0.00 0.00 0.00 100
20260905053126 16 225 20.9 32.2 0.00 0.00 0.00 100
20260905052927 16 222 20.9 32.2 0.00 0.00 0.00 100
20260905052726 16 226 20.9 32.2 0.00 0.00 0.00 100
20260905052614 16 224 17.7 27.4 0.00 0.00 0.00 100
20260905052512 16 228 19.3 30.6 0.00 0.00 0.00 100
20260905052310 16 241 17.7 29.0 0.00 0.00 0.00 100
20260905052106 16 240 19.3 25.7 0.00 0.00 0.00 100
20260905051902 16 244 19.3 29.0 0.00 0.00 0.00 100
20260905051701 16 237 19.3 29.0 0.00 0.00 0.00 100
20260905051557 16 227 17.7 27.4 0.00 0.00 0.00 100
20260905051457 16 229 16.1 27.4 0.00 0.00 0.00 100
20260905051254 16 229 14.5 27.4 0.00 0.00 0.00 100
20260905051049 16 219 9.7 16.1 0.00 0.00 0.00 100
20260905050848 15 222 12.9 19.3 0.00 0.00 0.00 100
20260905050645 15 222 12.9 19.3 0.00 0.00 0.00 100
20260905050544 15 216 11.3 16.1 0.00 0.00 0.00 100
20260905050443 15 213 9.7 16.1 0.00 0.00 0.00 100
20260905050240 15 215 8.0 12.9 0.00 0.00 0.00 100
20260905050038 15 220 9.7 14.5 0.00 0.00 0.00 100
20260905045835 15 218 8.0 14.5 0.00 0.00 0.00 100
20260905045634 15 215 8.0 12.9 0.00 0.00 0.00 100
20260905045531 16 213 8.0 14.5 0.00 0.00 0.00 100
20260905045432 15 213 8.0 14.5 0.00 0.00 0.00 100
20260905045229 15 207 6.4 11.3 0.00 0.00 0.00 100
20260905045026 15 200 6.4 8.0 0.00 0.00 0.00 100
20260905044828 15 206 8.0 12.9 0.00 0.00 0.00 100
20260905044627 15 208 6.4 9.7 0.00 0.00 0.00 100
20260905044524 15 213 6.4 9.7 0.00 0.00 0.00 100
20260905044426 15 212 6.4 9.7 0.00 0.00 0.00 100
20260905044225 15 210 6.4 9.7 0.00 0.00 0.00 100
20260905044021 15 211 9.7 12.9 0.00 0.00 0.00 100
20260905043823 15 210 8.0 12.9 0.00 0.00 0.00 100
20260905043621 15 213 8.0 11.3 0.00 0.00 0.00 100
20260905043518 15 213 9.7 11.3 0.00 0.00 0.00 100
20260905043419 15 215 9.7 14.5 0.00 0.00 0.00 100
20260905043218 15 213 8.0 14.5 0.00 0.00 0.00 100
20260905043014 15 213 8.0 12.9 0.00 0.00 0.00 100
20260905042816 15 217 6.4 9.7 0.00 0.00 0.00 100
20260905042615 15 219 8.0 12.9 0.00 0.00 0.00 100
20260905042508 15 219 9.7 12.9 0.00 0.00 0.00 100
20260905042414 15 220 9.7 12.9 0.00 0.00 0.00 100
20260905042213 15 212 6.4 9.7 0.00 0.00 0.00 100
20260905042005 15 213 4.8 6.4 0.00 0.00 0.00 100
20260905041811 15 210 4.8 6.4 0.00 0.00 0.00 100
20260905041610 14 204 4.8 6.4 0.00 0.00 0.00 100
20260905041503 14 200 3.2 6.4 0.00 0.00 0.00 100
20260905041410 14 199 4.8 6.4 0.00 0.00 0.00 100
20260905041209 14 197 3.2 6.4 0.00 0.00 0.00 100
20260905041002 14 194 3.2 4.8 0.00 0.00 0.00 100
20260905040809 14 193 3.2 4.8 0.00 0.00 0.00 100
20260905040608 14 194 3.2 4.8 0.00 0.00 0.00 100
20260905040501 14 194 3.2 4.8 0.00 0.00 0.00 100
20260905040408 14 193 3.2 6.4 0.00 0.00 0.00 100
20260905040207 14 192 4.8 6.4 0.00 0.00 0.00 100
20260905040000 15 192 3.2 6.4 0.00 0.00 0.00 100
20260905035757 15 197 4.8 6.4 0.00 0.00 0.00 100
20260905035556 15 192 6.4 8.0 0.00 0.00 0.00 100
20260905035456 15 187 6.4 8.0 0.00 0.00 0.00 100
20260905035355 15 186 6.4 8.0 0.00 0.00 0.00 100
20260905035200 15 192 6.4 8.0 0.00 0.00 0.00 100
20260905034954 15 199 6.4 9.7 0.00 0.00 0.00 100
20260905034753 15 208 6.4 9.7 0.00 0.00 0.00 100
20260905034552 15 218 6.4 8.0 0.00 0.00 0.00 100
20260905034452 15 219 6.4 9.7 0.00 0.00 0.00 100
20260905034352 15 227 8.0 11.3 0.00 0.00 0.00 100
20260905034151 15 222 9.7 14.5 0.00 0.00 0.00 100
20260905033948 15 225 9.7 14.5 0.00 0.00 0.00 100
20260905033747 15 231 12.9 17.7 0.00 0.00 0.00 100
20260905033545 15 234 9.7 17.7 0.00 0.00 0.00 100
20260905033444 15 233 9.7 19.3 0.00 0.00 0.00 100
20260905033344 15 238 11.3 19.3 0.00 0.00 0.00 100
20260905033142 15 238 11.3 19.3 0.00 0.00 0.00 100
20260905032941 15 243 12.9 19.3 0.00 0.00 0.00 100
20260905032734 15 240 11.3 17.7 0.00 0.00 0.00 100
20260905032532 15 231 16.1 29.0 0.00 0.00 0.00 100
20260905032432 15 225 17.7 29.0 0.00 0.00 0.00 100
20260905032117 15 233 14.5 22.5 0.00 0.00 0.00 100
20260905031916 15 235 14.5 22.5 0.00 0.00 0.00 100
20260905031714 15 239 14.5 22.5 0.00 0.00 0.00 100
20260905031522 15 239 16.1 24.1 0.00 0.00 0.00 100
20260905031308 15 229 17.7 29.0 0.00 0.00 0.00 100
20260905031106 15 241 19.3 37.0 0.00 0.00 0.00 100
20260905030905 15 235 25.7 40.2 0.00 0.00 0.00 100
20260905030701 15 236 20.9 29.0 0.00 0.00 0.00 100
20260905030458 15 240 22.5 30.6 0.00 0.00 0.00 100
20260905030356 16 238 20.9 30.6 0.00 0.00 0.00 100
20260905030255 16 234 16.1 29.0 0.00 0.00 0.00 100
20260905030053 16 243 20.9 38.6 0.00 0.00 0.00 100
20260905025851 16 234 20.9 29.0 0.00 0.00 0.00 100
20260905025646 16 228 19.3 32.2 0.00 0.00 0.00 100
20260905025443 16 234 20.9 29.0 0.00 0.00 0.00 100
20260905025340 16 239 20.9 35.4 0.00 0.00 0.00 100
20260905025240 16 234 20.9 35.4 0.00 0.00 0.00 100
20260905025035 16 240 19.3 29.0 0.00 0.00 0.00 100
20260905024830 16 240 12.9 19.3 0.00 0.00 0.00 100
20260905024630 16 232 16.1 27.4 0.00 0.00 0.00 100
20260905024426 17 231 17.7 27.4 0.00 0.00 0.00 100
20260905024322 17 232 17.7 27.4 0.00 0.00 0.00 100
20260905024223 17 229 19.3 27.4 0.00 0.00 0.00 100
20260905024021 17 227 14.5 25.7 0.00 0.00 0.00 100
20260905023817 17 231 16.1 25.7 0.00 0.00 0.00 100
20260905023617 17 235 17.7 30.6 0.00 0.00 0.00 100
20260905023415 17 239 16.1 30.6 0.00 0.00 0.00 100
20260905023212 17 236 19.3 35.4 0.00 0.00 0.00 100
20260905023010 17 250 20.9 35.4 0.00 0.00 0.00 100
20260905022805 17 273 20.9 30.6 0.00 0.00 0.00 100
20260905022603 17 241 16.1 30.6 0.00 0.00 0.00 100
20260905022359 17 241 14.5 19.3 0.00 0.00 0.00 100
20260905022253 17 245 14.5 24.1 0.00 0.00 0.00 100
20260905022158 17 244 14.5 24.1 0.00 0.00 0.00 100
20260905021954 17 233 11.3 20.9 0.00 0.00 0.00 100
20260905021746 17 237 11.3 16.1 0.00 0.00 0.00 100
20260905021550 17 234 9.7 16.1 0.00 0.00 0.00 100
20260905021348 17 234 12.9 17.7 0.00 0.00 0.00 100
20260905021241 17 239 14.5 20.9 0.00 0.00 0.00 100
20260905021148 17 238 12.9 20.9 0.00 0.00 0.00 100
20260905020946 17 237 9.7 16.1 0.00 0.00 0.00 100
20260905020737 17 245 9.7 14.5 0.00 0.00 0.00 100
20260905020342 17 246 12.9 19.3 0.00 0.00 0.00 100
20260905020234 17 241 12.9 19.3 0.00 0.00 0.00 100
20260905020140 17 234 14.5 19.3 0.00 0.00 0.00 100
20260905015938 17 232 14.5 22.5 0.00 0.00 0.00 100
20260905015729 17 245 11.3 17.7 0.00 0.00 0.00 100
20260905015524 17 250 11.3 17.7 0.00 0.00 0.00 100
20260905015322 17 248 12.9 17.7 0.00 0.00 0.00 100
20260905015222 17 253 14.5 24.1 0.00 0.00 0.00 100
20260905015122 17 250 16.1 24.1 0.00 0.00 0.00 100
20260905014919 18 247 17.7 25.7 0.00 0.00 0.00 100
20260905014715 18 241 14.5 24.1 0.00 0.00 0.00 100
20260905014513 18 243 17.7 29.0 0.00 0.00 0.00 100
20260905014311 18 247 17.7 29.0 0.00 0.00 0.00 100
20260905014209 18 249 17.7 25.7 0.00 0.00 0.00 100
20260905014107 18 243 20.9 30.6 0.00 0.00 0.00 100
20260905013904 18 252 14.5 30.6 0.00 0.00 0.00 100
20260905013700 18 251 11.3 20.9 0.00 0.00 0.00 100
20260905013459 18 228 8.0 12.9 0.00 0.00 0.00 100
20260905013257 18 220 11.3 14.5 0.00 0.00 0.00 100
20260905013156 18 222 12.9 17.7 0.00 0.00 0.00 100
20260905013056 18 221 12.9 17.7 0.00 0.00 0.00 100
20260905012856 18 219 12.9 19.3 0.00 0.00 0.00 100
20260905012654 18 227 14.5 24.1 0.00 0.00 0.00 100
20260905012448 18 219 12.9 24.1 0.00 0.00 0.00 100
20260905012247 18 220 9.7 16.1 0.00 0.00 0.00 100
20260905012146 18 222 11.3 16.1 0.00 0.00 0.00 100
20260905012045 18 221 14.5 24.1 0.00 0.00 0.00 100
20260905011842 17 220 17.7 25.7 0.00 0.00 0.00 100
20260905011639 17 224 17.7 29.0 0.00 0.00 0.00 100
20260905011435 17 209 14.5 19.3 0.00 0.00 0.00 100
20260905011232 17 215 12.9 20.9 0.00 0.00 0.00 100
20260905011030 17 215 12.9 19.3 0.00 0.00 0.00 100
20260905010829 17 228 14.5 20.9 0.00 0.00 0.00 100
20260905010627 17 241 20.9 30.6 0.00 0.00 0.00 100
20260905010423 18 219 19.3 29.0 0.00 0.00 0.00 100
20260905010219 18 204 24.1 35.4 0.00 0.00 0.00 100
20260905010118 18 208 27.4 37.0 0.00 0.00 0.00 100
20260905010014 18 212 29.0 37.0 0.00 0.00 0.00 100
20260905005812 18 210 30.6 38.6 0.00 0.00 0.00 100
20260905005607 18 202 30.6 38.6 0.00 0.00 0.00 100
20260905005359 18 205 30.6 41.8 0.00 0.00 0.00 100
20260905005153 18 209 30.6 43.5 0.00 0.00 0.00 100
20260905005050 18 213 32.2 43.5 0.00 0.00 0.00 100
20260905004947 18 214 33.8 38.6 0.00 0.00 0.00 100
20260905004739 18 205 32.2 40.2 0.00 0.00 0.00 100
20260905004535 18 213 33.8 45.1 0.00 0.00 0.00 100
20260905004317 18 215 32.2 48.3 0.00 0.00 0.00 100
20260905004117 18 215 25.7 41.8 0.00 0.00 0.00 100
20260905004009 18 209 27.4 41.8 0.00 0.00 0.00 100
20260905003907 18 205 29.0 41.8 0.00 0.00 0.00 100
20260905003704 18 214 30.6 45.1 0.00 0.00 0.00 100
20260905003459 18 204 29.0 45.1 0.00 0.00 0.00 100
20260905003251 18 196 33.8 45.1 0.00 0.00 0.00 100
20260905003047 18 211 30.6 45.1 0.00 0.00 0.00 100
20260905002944 18 216 29.0 40.2 0.00 0.00 0.00 100
20260905002841 18 208 30.6 43.5 0.00 0.00 0.00 100
20260905002635 18 204 32.2 45.1 0.00 0.00 0.00 100
20260905002429 18 218 33.8 45.1 0.00 0.00 0.00 100
20260905002222 18 224 35.4 48.3 0.00 0.00 0.00 100
20260905002014 18 232 32.2 49.9 0.00 0.00 0.00 100
20260905001911 18 213 30.6 49.9 0.00 0.00 0.00 100
20260905001805 18 208 30.6 41.8 0.00 0.00 0.00 100
20260905001558 18 196 35.4 48.3 0.00 0.00 0.00 100
20260905001351 18 213 32.2 41.8 0.00 0.00 0.00 100
20260905001144 18 208 29.0 37.0 0.00 0.00 0.00 100
20260905000938 18 200 27.4 37.0 0.00 0.00 0.00 100
20260905000838 18 200 25.7 37.0 0.00 0.00 0.00 100
20260905000735 18 200 22.5 35.4 0.00 0.00 0.00 100
20260905000532 18 203 24.1 35.4 0.00 0.00 0.00 100
20260905000327 18 207 29.0 53.1 0.00 0.00 0.00 100
20260905000123 18 212 27.4 53.1 0.00 0.00 0.00 100
20260904235919 18 207 25.7 35.4 0.00 0.00 0.00 100
20260904235816 18 218 25.7 35.4 0.00 0.00 0.00 100
20260904235715 18 207 25.7 33.8 0.00 0.00 0.00 100
20260904235509 18 203 25.7 37.0 0.00 0.00 0.00 100
20260904235306 18 212 27.4 41.8 0.00 0.00 0.00 100
20260904235057 18 212 27.4 40.2 0.00 0.00 0.00 100